DW5785 Weather Reports


Display with metric or nautical units.
time (UTC)temp
F
wind
direction
speed
MPH
gust
MPH
rain 1hr
in
rain 24hr
in
rain mn
in
humidity
%
barometer
mb
20181112104040 48 99 0.0 4.0 0.00 0.00 0.00 94 1021.6
20181112103539 48 99 0.0 0.0 0.00 0.00 0.00 94 1021.6
20181112103046 48 99 0.0 0.0 0.00 0.00 0.00 94 1021.7
20181112102543 48 56 0.0 0.0 0.00 0.00 0.00 95 1021.7
20181112102040 48 97 0.0 0.0 0.00 0.00 0.00 95 1021.7
20181112101540 47 119 0.0 0.0 0.00 0.00 0.00 95 1021.8
20181112101045 47 119 0.0 0.0 0.00 0.00 0.00 95 1021.7
20181112100540 47 122 0.0 2.0 0.00 0.00 0.00 96 1021.7
20181112100040 47 100 0.0 0.0 0.00 0.00 0.00 96 1021.8
20181112095540 47 100 0.0 0.0 0.00 0.00 0.00 96 1021.8
20181112095040 47 100 0.0 0.0 0.00 0.00 0.00 96 1021.9
20181112094539 47 100 0.0 0.0 0.00 0.00 0.00 96 1021.7
20181112094040 47 100 0.0 0.0 0.00 0.00 0.00 97 1021.6
20181112093540 47 83 0.0 0.0 0.00 0.00 0.00 97 1021.5
20181112093040 46 83 0.0 0.0 0.00 0.00 0.00 97 1021.7
20181112092540 46 83 0.0 0.0 0.00 0.00 0.00 97 1021.6
20181112092040 46 104 0.0 0.0 0.00 0.00 0.00 97 1021.6
20181112091540 46 53 0.0 0.0 0.00 0.00 0.00 97 1021.6
20181112091040 46 85 0.0 0.0 0.00 0.00 0.00 97 1021.5
20181112090540 46 124 0.0 0.0 0.00 0.00 0.00 97 1021.8
20181112090040 46 124 0.0 0.0 0.00 0.00 0.00 97 1021.8
20181112085540 46 124 0.0 0.0 0.00 0.00 0.00 97 1021.8
20181112085040 46 124 0.0 0.0 0.00 0.00 0.00 97 1021.8
20181112084540 46 124 0.0 0.0 0.00 0.00 0.00 97 1021.8
20181112084040 46 124 0.0 0.0 0.00 0.00 0.00 97 1021.8
20181112083543 46 124 0.0 0.0 0.00 0.00 0.00 97 1021.8
20181112083046 46 124 0.0 0.0 0.00 0.00 0.00 97 1021.7
20181112082540 45 124 0.0 0.0 0.00 0.00 0.00 97 1021.8
20181112082046 45 124 0.0 3.0 0.00 0.00 0.00 97 1021.8
20181112081540 45 124 0.0 0.0 0.00 0.00 0.00 97 1021.7
20181112081040 45 124 0.0 0.0 0.00 0.00 0.00 97 1021.9
20181112080543 45 124 0.0 0.0 0.00 0.00 0.00 97 1021.9
20181112080040 45 124 0.0 0.0 0.00 0.00 0.00 97 1021.9
20181112075540 45 124 0.0 0.0 0.00 0.00 0.00 97 1021.8
20181112075040 45 124 0.0 0.0 0.00 0.00 0.00 97 1021.9
20181112074540 45 124 0.0 0.0 0.00 0.00 0.00 97 1021.9
20181112074040 44 124 0.0 0.0 0.00 0.00 0.00 97 1021.8
20181112073540 44 124 0.0 0.0 0.00 0.00 0.00 97 1021.8
20181112073040 44 124 0.0 0.0 0.00 0.00 0.00 97 1021.8
20181112072540 44 153 0.0 0.0 0.00 0.00 0.00 97 1021.8
20181112072040 44 154 0.0 0.0 0.00 0.00 0.00 97 1021.7
20181112071540 44 158 0.0 6.0 0.00 0.00 0.00 97 1021.6
20181112071040 44 162 0.0 7.0 0.00 0.00 0.00 97 1021.5
20181112070540 44 170 4.0 7.0 0.00 0.00 0.00 97 1021.4
20181112070040 44 154 1.0 8.0 0.00 0.00 0.00 97 1021.3
20181112065540 44 142 1.0 8.0 0.00 0.00 0.00 97 1021.3
20181112065040 44 158 3.0 8.0 0.00 0.00 0.00 97 1021.3
20181112064540 44 169 6.0 6.0 0.00 0.00 0.00 97 1021.3
20181112064039 44 98 0.0 5.0 0.00 0.00 0.00 97 1021.4
20181112063540 43 119 0.0 3.0 0.00 0.00 0.00 97 1021.3
20181112063040 43 158 0.0 3.0 0.00 0.00 0.00 97 1021.2
20181112062540 43 106 0.0 0.0 0.00 0.00 0.00 97 1021.3
20181112062040 43 135 0.0 61.0 0.00 0.00 0.00 97 1021.2
20181112061539 43 107 0.0 0.0 0.00 0.00 0.00 97 1021.3
20181112061040 43 145 0.0 80.0 0.00 0.00 0.00 97 1021.2
20181112060540 43 144 4.0 7.0 0.00 0.00 0.00 97 1021.1
20181112060042 43 166 3.0 5.0 0.00 0.00 0.00 97 1021.0
20181112055540 43 179 2.0 5.0 0.00 0.00 0.00 97 1020.9
20181112055040 43 156 3.0 5.0 0.00 0.00 0.00 97 1020.8
20181112054543 43 174 5.0 6.0 0.00 0.00 0.00 97 1020.8
20181112054040 43 170 1.0 5.0 0.00 0.00 0.00 97 1021.0
20181112053543 43 156 1.0 4.0 0.00 0.00 0.00 97 1020.9
20181112053040 43 143 3.0 6.0 0.00 0.00 0.00 97 1020.9
20181112052543 43 168 6.0 6.0 0.00 0.00 0.00 97 1020.9
20181112052040 43 192 0.0 6.0 0.00 0.00 0.00 97 1020.8
20181112051540 43 170 5.0 6.0 0.00 0.00 0.00 97 1020.7
20181112051046 43 172 0.0 6.0 0.00 0.00 0.00 97 1020.5
20181112050540 43 173 0.0 7.0 0.00 0.00 0.00 97 1020.5
20181112050043 43 156 0.0 5.0 0.00 0.00 0.00 97 1020.5
20181112045540 43 158 2.0 6.0 0.00 0.00 0.00 97 1020.6
20181112045040 43 187 5.0 9.0 0.00 0.00 0.00 97 1020.7
20181112044540 43 172 7.0 9.0 0.00 0.00 0.00 97 1020.6
20181112044043 43 166 9.0 9.0 0.00 0.00 0.00 97 1020.5
20181112043540 43 193 4.0 9.0 0.00 0.00 0.00 97 1020.5